Data for 10/30/2017

Time Sea-Level Adjusted Pressure Absolute Pressure Temperature Relative Humidity Dew Point   
(mb) (inHg) (mb) (inHg) (C) (F) (%) (C) (F)
00:05 1027 30.33 857 25.31 -1.5 29.3 55 -9.5 14.9
00:10 1027 30.33 857 25.31 -1.7 29 53 -10.1 13.9
00:15 1027 30.33 857 25.31 -1.6 29.1 52 -10.3 13.5
00:20 1027 30.33 857 25.31 -1.6 29.2 53 -10 13.9
00:25 1027 30.33 857 25.31 -1.7 28.9 53 -10.1 13.9
00:30 1027 30.33 857 25.31 -1.9 28.7 53 -10.2 13.7
00:35 1027 30.33 857 25.31 -2 28.5 53 -10.4 13.3
00:40 1027 30.33 857 25.31 -1.9 28.7 52 -10.4 13.3
00:45 1027 30.33 857 25.31 -1.9 28.5 53 -10.4 13.3
00:50 1027 30.33 857 25.31 -2 28.4 53 -10.3 13.4
00:55 1027 30.33 857 25.31 -2 28.4 53 -10.3 13.5
01:00 1027 30.33 857 25.31 -2 28.3 54 -10.2 13.6
01:05 1027 30.33 856 25.28 -2.1 28.2 54 -10.2 13.7
01:10 1027 30.33 856 25.28 -2.1 28.2 54 -10.1 13.7
01:15 1027 30.33 856 25.28 -2.1 28.3 55 -9.9 14.1
01:20 1027 30.33 856 25.28 -2 28.4 55 -9.9 14.2
01:25 1027 30.33 857 25.31 -2 28.4 53 -10.3 13.4
01:30 1027 30.33 857 25.31 -2 28.3 55 -9.9 14.2
01:35 1027 30.33 857 25.31 -2.1 28.3 54 -10.1 13.7
01:40 1027 30.33 856 25.28 -2.1 28.2 54 -10.2 13.7
01:45 1027 30.33 856 25.28 -2.2 28.1 55 -10 14
01:50 1027 30.33 857 25.31 -2.4 27.8 56 -10 14.1
01:55 1027 30.33 857 25.31 -2.6 27.3 60 -9.3 15.3
02:00 1027 30.33 857 25.31 -3.1 26.4 62 -9.3 15.3
02:05 1027 30.33 857 25.31 -3.2 26.3 60 -9.9 14.2
02:10 1027 30.33 857 25.31 -3.1 26.4 59 -10.1 13.8
02:15 1027 30.33 857 25.31 -2.9 26.8 61 -9.5 14.9
02:20 1028 30.36 857 25.31 -3.1 26.4 62 -9.3 15.2
02:25 1028 30.36 857 25.31 -3.4 25.8 64 -9.3 15.2
02:30 1028 30.36 857 25.31 -3.6 25.6 64 -9.5 14.9
02:35 1028 30.36 857 25.31 -3.6 25.6 62 -9.9 14.2
02:40 1027 30.33 857 25.31 -3.6 25.5 59 -10.6 13
02:45 1028 30.36 857 25.31 -3.5 25.8 58 -10.6 13
02:50 1028 30.36 857 25.31 -3.4 25.8 58 -10.6 12.9
02:55 1028 30.36 857 25.31 -3.4 25.8 60 -10.2 13.7
03:00 1028 30.36 857 25.31 -3.4 25.9 60 -10.1 13.8
03:05 1027 30.33 857 25.31 -3.5 25.7 60 -10.1 13.8
03:10 1027 30.33 857 25.31 -3.6 25.6 61 -10.2 13.7
03:15 1027 30.33 857 25.31 -3.6 25.5 60 -10.2 13.6
03:20 1027 30.33 857 25.31 -3.7 25.4 61 -10.1 13.9
03:25 1027 30.33 857 25.31 -3.6 25.6 59 -10.5 13.1
03:30 1027 30.33 857 25.31 -3.5 25.7 61 -9.9 14.2
03:35 1027 30.33 857 25.31 -3.6 25.4 63 -9.8 14.4
03:40 1027 30.33 857 25.31 -3.9 25.1 66 -9.4 15.1
03:45 1028 30.36 857 25.31 -4.3 24.3 67 -9.5 14.8
03:50 1028 30.36 857 25.31 -4.3 24.2 67 -9.6 14.7
03:55 1027 30.33 857 25.31 -4.3 24.3 63 -10.3 13.5
04:00 1028 30.36 857 25.31 -3.8 25.1 65 -9.5 14.9
04:05 1028 30.36 857 25.31 -3.9 25.1 67 -9.1 15.7
04:10 1028 30.36 857 25.31 -4.3 24.3 67 -9.5 14.9
04:15 1028 30.36 857 25.31 -4.2 24.4 68 -9.3 15.3
04:20 1028 30.36 857 25.31 -4.4 24.2 67 -9.5 14.9
04:25 1028 30.36 857 25.31 -4.2 24.4 64 -10.1 13.7
04:30 1028 30.36 857 25.31 -3.9 25.1 65 -9.4 15
04:35 1028 30.36 857 25.31 -3.8 25.1 65 -9.4 15
04:40 1028 30.36 857 25.31 -3.8 25.1 63 -9.8 14.3
04:45 1028 30.36 857 25.31 -3.5 25.8 63 -9.4 15
04:50 1028 30.36 857 25.31 -3.5 25.7 64 -9.4 15.1
04:55 1028 30.36 857 25.31 -3.5 25.7 65 -9.2 15.4
05:00 1028 30.36 857 25.31 -3.5 25.7 63 -9.5 14.9
05:05 1028 30.36 857 25.31 -3.5 25.8 64 -9.4 15.1
05:10 1028 30.36 857 25.31 -3.4 26 64 -9.3 15.3
05:15 1028 30.36 857 25.31 -3.3 26.1 64 -9.1 15.7
05:20 1028 30.36 857 25.31 -3.2 26.2 65 -8.9 16
05:25 1028 30.36 857 25.31 -3.2 26.3 66 -8.7 16.3
05:30 1028 30.36 857 25.31 -3.3 26.1 64 -9.2 15.4
05:35 1028 30.36 857 25.31 -3.1 26.4 65 -8.8 16.2
05:40 1028 30.36 857 25.31 -3 26.5 64 -9 15.8
05:45 1028 30.36 857 25.31 -3.1 26.5 63 -9.1 15.6
05:50 1027 30.33 857 25.31 -3 26.5 62 -9.2 15.4
05:55 1027 30.33 857 25.31 -2.9 26.7 61 -9.5 15
06:00 1027 30.33 857 25.31 -2.9 26.8 60 -9.7 14.6
06:05 1027 30.33 857 25.31 -2.8 27 61 -9.3 15.2
06:10 1027 30.33 857 25.31 -2.9 26.7 61 -9.4 15
06:15 1027 30.33 857 25.31 -3.1 26.5 62 -9.5 15
06:20 1027 30.33 856 25.28 -3.1 26.5 62 -9.4 15
06:25 1027 30.33 856 25.28 -3.2 26.2 63 -9.4 15.1
06:30 1027 30.33 856 25.28 -3.3 26 63 -9.3 15.2
06:35 1027 30.33 856 25.28 -3.5 25.7 64 -9.4 15.1
06:40 1027 30.33 856 25.28 -3.7 25.4 64 -9.4 15
06:45 1027 30.33 856 25.28 -3.6 25.4 65 -9.3 15.3
06:50 1027 30.33 856 25.28 -3.7 25.3 66 -9.1 15.6
06:55 1027 30.33 856 25.28 -3.7 25.3 67 -9.1 15.7
07:00 1027 30.33 856 25.28 -3.7 25.3 66 -9.2 15.4
07:05 1027 30.33 856 25.28 -3.6 25.5 65 -9.3 15.2
07:10 1027 30.33 856 25.28 -3.7 25.4 64 -9.4 15
07:15 1027 30.33 856 25.28 -3.8 25.2 65 -9.4 15.1
07:20 1027 30.33 856 25.28 -3.8 25.1 64 -9.6 14.7
07:25 1027 30.33 856 25.28 -3.8 25.1 65 -9.5 14.8
07:30 1027 30.33 856 25.28 -3.7 25.3 64 -9.5 14.9
07:35 1027 30.33 856 25.28 -3.7 25.3 64 -9.5 14.8
07:40 1027 30.33 856 25.28 -3.8 25.2 64 -9.6 14.8
07:45 1027 30.33 856 25.28 -3.8 25.2 65 -9.5 14.9
07:50 1027 30.33 856 25.28 -3.9 24.9 66 -9.3 15.2
07:55 1027 30.33 856 25.28 -3.9 25 65 -9.5 14.9
08:00 1027 30.33 856 25.28 -3.9 25 65 -9.5 14.9
08:05 1027 30.33 856 25.28 -3.9 25 66 -9.4 15.1
08:10 1027 30.33 856 25.28 -3.8 25.2 65 -9.5 14.8
08:15 1027 30.33 856 25.28 -3.8 25.1 64 -9.6 14.7
08:20 1027 30.33 856 25.28 -3.7 25.3 63 -9.8 14.4
08:25 1027 30.33 856 25.28 -3.2 26.2 61 -9.6 14.7
08:30 1027 30.33 856 25.28 -3 26.5 61 -9.5 14.9
08:35 1027 30.33 856 25.28 -2.9 26.8 60 -9.6 14.8
08:40 1027 30.33 856 25.28 -2.6 27.4 58 -9.6 14.7
08:45 1027 30.33 856 25.28 -2.7 27.1 61 -9.3 15.2
08:50 1027 30.33 856 25.28 -2.4 27.6 57 -9.8 14.4
08:55 1027 30.33 856 25.28 -2.6 27.4 58 -9.7 14.5
09:00 1027 30.33 856 25.28 -2.9 26.9 60 -9.6 14.8
09:05 1027 30.33 856 25.28 -2.9 26.8 59 -9.8 14.4
09:10 1027 30.33 856 25.28 -2.5 27.5 58 -9.7 14.5
09:15 1027 30.33 856 25.28 -2.8 27 58 -9.9 14.2
09:20 1026 30.3 856 25.28 -2.1 28.2 53 -10.4 13.2
09:25 1026 30.3 856 25.28 -2.1 28.2 54 -10.3 13.5
09:30 1026 30.3 855 25.25 -1.9 28.5 53 -10.4 13.3
09:35 1026 30.3 855 25.25 -1.8 28.7 52 -10.5 13.2
09:40 1026 30.3 855 25.25 -1.5 29.3 53 -9.9 14.2
09:45 1026 30.3 855 25.25 -1.3 29.7 49 -10.6 13
09:50 1026 30.3 855 25.25 -1 30.2 46 -11.3 11.7
09:55 1026 30.3 855 25.25 -0.9 30.4 49 -10.3 13.5
10:00 1026 30.3 855 25.25 -0.9 30.3 47 -10.8 12.6
10:05 1026 30.3 855 25.25 -0.9 30.4 44 -11.6 11.1
10:10 1026 30.3 855 25.25 -0.8 30.6 46 -11.1 12.1
10:15 1026 30.3 855 25.25 -0.6 30.8 49 -10.1 13.8
10:20 1026 30.3 855 25.25 -0.8 30.6 49 -10.3 13.5
10:25 1026 30.3 855 25.25 -0.8 30.5 47 -10.8 12.5
10:30 1025 30.27 855 25.25 -0.4 31.2 49 -9.9 14.2
10:35 1025 30.27 855 25.25 0.2 32.3 48 -9.7 14.6
10:40 1025 30.27 854 25.22 0.5 32.9 48 -9.2 15.4
10:45 1025 30.27 854 25.22 -0.1 31.9 46 -10.4 13.3
10:50 1025 30.27 854 25.22 0.2 32.4 43 -10.9 12.5
10:55 1025 30.27 854 25.22 0.5 32.9 44 -10.4 13.3
11:00 1025 30.27 854 25.22 1 33.7 40 -11 12.1
11:05 1025 30.27 854 25.22 0.9 33.7 42 -10.6 12.9
11:10 1025 30.27 854 25.22 1.2 34.1 42 -10.3 13.4
11:15 1025 30.27 854 25.22 1 33.9 40 -11 12.3
11:20 1025 30.27 854 25.22 1.3 34.3 38 -11.7 10.9
11:25 1025 30.27 854 25.22 1.3 34.3 38 -11.4 11.5
11:30 1025 30.27 854 25.22 1.3 34.3 38 -11.5 11.2
11:35 1024 30.24 854 25.22 0.9 33.5 39 -11.6 11.1
11:40 1024 30.24 853 25.19 1.6 34.9 39 -10.9 12.5
11:45 1024 30.24 853 25.19 2 35.5 38 -10.9 12.5
11:50 1024 30.24 853 25.19 1.8 35.3 41 -10 13.9
11:55 1024 30.24 853 25.19 2 35.6 38 -10.8 12.6
12:00 1024 30.24 853 25.19 2.5 36.4 35 -11.3 11.6
12:05 1024 30.24 853 25.19 1.2 34.2 40 -10.8 12.5
12:10 1024 30.24 853 25.19 1.8 35.3 37 -11.5 11.3
12:15 1024 30.24 853 25.19 2.4 36.3 35 -11.4 11.4
12:20 1023 30.21 853 25.19 2.1 35.8 37 -11 12.2
12:25 1023 30.21 853 25.19 1.5 34.6 39 -11.2 11.8
12:30 1023 30.21 852 25.16 1.5 34.8 41 -10.4 13.4
12:35 1023 30.21 852 25.16 2.1 35.8 36 -11.4 11.4
12:40 1023 30.21 852 25.16 2.5 36.5 36 -11.1 12
12:45 1023 30.21 852 25.16 1.8 35.2 39 -10.6 12.9
12:50 1023 30.21 852 25.16 1.8 35.3 36 -11.6 11.1
12:55 1023 30.21 852 25.16 2.8 37.1 35 -11.2 11.8
13:00 1023 30.21 852 25.16 1.2 34.2 40 -11.1 12
13:05 1023 30.21 852 25.16 0.8 33.5 39 -11.8 10.8
13:10 1023 30.21 852 25.16 1.6 34.9 38 -11.2 11.9
13:15 1023 30.21 852 25.16 2.9 37.2 34 -11.3 11.6
13:20 1023 30.21 852 25.16 3.3 38 34 -11.1 12
13:25 1023 30.21 852 25.16 3.3 38 33 -11.4 11.5
13:30 1023 30.21 852 25.16 2.7 36.9 35 -11.4 11.5
13:35 1023 30.21 852 25.16 3.6 38.5 32 -11.4 11.4
13:40 1023 30.21 852 25.16 4.3 39.8 31 -11.3 11.7
13:45 1022 30.18 852 25.16 3.3 38 36 -10.4 13.2
13:50 1022 30.18 852 25.16 2 35.6 37 -11.1 12.1
13:55 1022 30.18 851 25.13 2.5 36.5 35 -11.7 11
14:00 1022 30.18 851 25.13 3.2 37.8 34 -11.3 11.7
14:05 1022 30.18 851 25.13 2.7 36.9 35 -11.4 11.5
14:10 1022 30.18 851 25.13 2.7 36.9 33 -11.9 10.6
14:15 1022 30.18 851 25.13 3.5 38.2 33 -11.5 11.4
14:20 1022 30.18 851 25.13 3.8 38.9 33 -11 12.2
14:25 1022 30.18 851 25.13 3.7 38.7 35 -10.5 13
14:30 1022 30.18 851 25.13 3.6 38.4 33 -11.2 11.9
14:35 1022 30.18 851 25.13 3.6 38.4 35 -10.6 12.8
14:40 1022 30.18 851 25.13 2.8 37.1 37 -10.5 13.2
14:45 1021 30.15 851 25.13 2.6 36.7 36 -10.9 12.4
14:50 1021 30.15 851 25.13 3 37.5 35 -11 12.2
14:55 1021 30.15 851 25.13 3.4 38.1 36 -10.4 13.3
15:00 1021 30.15 851 25.13 3.8 38.9 32 -11.3 11.7
15:05 1021 30.15 851 25.13 4.5 40.2 32 -10.7 12.7
15:10 1021 30.15 850 25.1 3.9 38.9 34 -10.6 12.9
15:15 1021 30.15 850 25.1 3.5 38.4 34 -11 12.1
15:20 1021 30.15 850 25.1 3.8 38.9 34 -10.8 12.6
15:25 1021 30.15 850 25.1 4.2 39.5 32 -11 12.3
15:30 1021 30.15 850 25.1 4.1 39.4 33 -10.8 12.5
15:35 1021 30.15 850 25.1 4.2 39.6 33 -10.8 12.6
15:40 1021 30.15 850 25.1 4.2 39.5 33 -10.8 12.5
15:45 1021 30.15 850 25.1 4.2 39.5 33 -10.6 12.9
15:50 1021 30.15 850 25.1 4 39.1 34 -10.7 12.7
15:55 1021 30.15 850 25.1 3.7 38.7 34 -10.8 12.6
16:00 1021 30.15 850 25.1 3.7 38.7 33 -11 12.2
16:05 1021 30.15 850 25.1 3.6 38.5 34 -11 12.1
16:10 1021 30.15 850 25.1 3.7 38.7 33 -11.1 12
16:15 1021 30.15 850 25.1 3.7 38.7 34 -10.8 12.6
16:20 1021 30.15 850 25.1 3.4 38.2 33 -11.3 11.7
16:25 1021 30.15 850 25.1 3.3 37.9 35 -10.7 12.7
16:30 1021 30.15 850 25.1 3.2 37.7 35 -10.8 12.6
16:35 1020 30.12 850 25.1 3 37.3 35 -11 12.1
16:40 1020 30.12 850 25.1 2.7 36.9 36 -10.8 12.5
16:45 1020 30.12 850 25.1 2.5 36.5 37 -10.8 12.5
16:50 1020 30.12 849 25.07 2.3 36.1 39 -10.5 13.2
16:55 1020 30.12 849 25.07 2.3 36.1 39 -10.4 13.3
17:00 1020 30.12 849 25.07 2.2 35.9 39 -10.5 13
17:05 1020 30.12 849 25.07 2 35.7 39 -10.5 13
17:10 1020 30.12 849 25.07 1.9 35.5 40 -10.4 13.3
17:15 1020 30.12 849 25.07 1.5 34.8 41 -10.3 13.5
17:20 1020 30.12 849 25.07 1.3 34.4 41 -10.5 13.2
17:25 1020 30.12 849 25.07 1.1 34 42 -10.5 13.1
17:30 1020 30.12 849 25.07 1 33.8 43 -10.3 13.5
17:35 1020 30.12 849 25.07 0.9 33.6 43 -10.2 13.6
17:40 1020 30.12 849 25.07 0.8 33.5 44 -10.2 13.6
17:45 1020 30.12 849 25.07 0.8 33.4 43 -10.3 13.4
17:50 1020 30.12 849 25.07 0.8 33.5 43 -10.3 13.4
17:55 1020 30.12 849 25.07 0.7 33.2 44 -10.2 13.6
18:00 1020 30.12 849 25.07 0.6 33.1 44 -10.2 13.6
18:05 1020 30.12 849 25.07 0.5 32.9 44 -10.4 13.4
18:10 1020 30.12 849 25.07 0.4 32.6 46 -10.1 13.8
18:15 1020 30.12 849 25.07 0.3 32.5 46 -10 14
18:20 1020 30.12 849 25.07 0.2 32.3 46 -10 13.9
18:25 1020 30.12 849 25.07 -0.3 31.5 50 -9.6 14.7
18:30 1020 30.12 849 25.07 -0.6 31 53 -9.1 15.6
18:35 1020 30.12 849 25.07 -0.7 30.7 56 -8.4 16.9
18:40 1020 30.12 849 25.07 -1.1 30.1 59 -8 17.6
18:45 1020 30.12 849 25.07 -1.2 29.8 60 -8 17.7
18:50 1020 30.12 849 25.07 -1.3 29.7 61 -8 17.7
18:55 1020 30.12 849 25.07 -1.3 29.7 61 -7.8 17.9
19:00 1020 30.12 849 25.07 -1.3 29.7 62 -7.7 18.2
19:05 1020 30.12 849 25.07 -1.7 29 63 -7.8 18
19:10 1020 30.12 849 25.07 -1.7 29 65 -7.4 18.7
19:15 1020 30.12 849 25.07 -2.1 28.3 67 -7.5 18.6
19:20 1020 30.12 849 25.07 -2.2 28 67 -7.6 18.3
19:25 1020 30.12 849 25.07 -2.2 28.1 66 -7.7 18.2
19:30 1020 30.12 849 25.07 -2.3 27.9 66 -7.8 18
19:35 1020 30.12 849 25.07 -2.1 28.1 65 -7.8 17.9
19:40 1020 30.12 849 25.07 -2 28.4 65 -7.8 17.9
19:45 1020 30.12 849 25.07 -2 28.3 64 -7.9 17.8
19:50 1020 30.12 849 25.07 -2.3 27.9 66 -7.9 17.8
19:55 1020 30.12 849 25.07 -2.3 27.8 65 -8 17.6
20:00 1020 30.12 849 25.07 -2.2 28 65 -8 17.7
20:05 1020 30.12 849 25.07 -2.1 28.3 65 -7.9 17.9
20:10 1020 30.12 849 25.07 -2.5 27.6 66 -7.9 17.7
20:15 1020 30.12 849 25.07 -2.7 27.2 67 -8 17.6
20:20 1020 30.12 849 25.07 -2.8 27 68 -8 17.6
20:25 1020 30.12 849 25.07 -2.9 26.9 68 -8 17.6
20:30 1020 30.12 849 25.07 -2.9 26.9 68 -8 17.7
20:35 1020 30.12 849 25.07 -3 26.6 69 -7.9 17.7
20:40 1020 30.12 849 25.07 -3.1 26.5 70 -7.9 17.8
20:45 1020 30.12 849 25.07 -3.1 26.5 70 -7.8 17.9
20:50 1020 30.12 849 25.07 -3.1 26.4 69 -7.9 17.8
20:55 1020 30.12 849 25.07 -3.2 26.3 70 -7.9 17.7
21:00 1020 30.12 849 25.07 -3.2 26.3 70 -7.8 17.9
21:05 1019 30.09 849 25.07 -3.2 26.3 70 -8 17.7
21:10 1019 30.09 848 25.04 -3.2 26.2 70 -8 17.5
21:15 1019 30.09 848 25.04 -3.4 25.9 70 -8.1 17.4
21:20 1019 30.09 848 25.04 -3.4 25.9 69 -8.2 17.3
21:25 1019 30.09 849 25.07 -3.4 25.8 70 -8.2 17.3
21:30 1019 30.09 849 25.07 -3.6 25.5 71 -8.2 17.2
21:35 1019 30.09 849 25.07 -3.7 25.3 71 -8.2 17.2
21:40 1019 30.09 849 25.07 -3.7 25.4 70 -8.4 17
21:45 1019 30.09 848 25.04 -3.8 25.2 69 -8.6 16.6
21:50 1019 30.09 848 25.04 -3.6 25.5 69 -8.5 16.7
21:55 1019 30.09 848 25.04 -3.6 25.4 70 -8.4 16.9
22:00 1019 30.09 848 25.04 -3.8 25.1 71 -8.4 16.8
22:05 1019 30.09 848 25.04 -4 24.8 71 -8.5 16.7
22:10 1019 30.09 848 25.04 -4 24.8 71 -8.5 16.6
22:15 1019 30.09 848 25.04 -4.1 24.6 71 -8.6 16.5
22:20 1019 30.09 848 25.04 -4.1 24.7 70 -8.7 16.3
22:25 1019 30.09 848 25.04 -3.9 25 68 -8.9 16.1
22:30 1019 30.09 848 25.04 -3.7 25.3 68 -8.9 16
22:35 1019 30.09 848 25.04 -3.7 25.4 66 -9 15.8
22:40 1019 30.09 848 25.04 -3.5 25.6 66 -9 15.8
22:45 1019 30.09 848 25.04 -3.4 25.8 65 -9.1 15.6
22:50 1019 30.09 848 25.04 -3.5 25.7 65 -9.1 15.6
22:55 1019 30.09 848 25.04 -3.6 25.6 66 -9 15.8
23:00 1019 30.09 848 25.04 -3.6 25.5 66 -9.2 15.5
23:05 1019 30.09 848 25.04 -3.6 25.5 66 -9.1 15.6
23:10 1019 30.09 848 25.04 -3.7 25.4 65 -9.3 15.3
23:15 1019 30.09 848 25.04 -3.8 25.2 66 -9.3 15.3
23:20 1019 30.09 848 25.04 -3.6 25.4 65 -9.4 15.1
23:25 1019 30.09 848 25.04 -3.7 25.4 65 -9.3 15.2
23:30 1019 30.09 848 25.04 -3.7 25.3 65 -9.4 15.1
23:35 1019 30.09 848 25.04 -3.9 25.1 66 -9.4 15.1
23:40 1019 30.09 848 25.04 -4.1 24.7 66 -9.5 15
23:45 1019 30.09 849 25.07 -4.2 24.5 66 -9.6 14.8
23:50 1019 30.09 849 25.07 -4.1 24.7 66 -9.5 14.9
23:55 1019 30.09 848 25.04 -3.9 24.9 65 -9.6 14.7
24:00 1019 30.09 848 25.04 -3.9 24.9 67 -9.1 15.6